Content
SEND FEEDBACK

Daily
Averages
Monthly
Summary
United States of America

MERIZO, GUAM


Home > North America > United States > Guam
Elevation: 10 feet     Latitude: 13 14N     Longitude: 144 39E

WEATHER
 
SELECT A DAY
Number of Records: 342,764;   Date Range: 1/1/95 - 9/22/14
 
SHARE

PRINT THIS DATA

[ ← Previous Day ]
WEATHER ALMANAC - JANUARY 4, 2013
[ Next Day → ]
[ °C ]   °F
Weather ElementAverageHighLow
Temperature80.6 °F84.2 °F (11:26 am)76.5 °F (6:55 am)
Dewpoint72.1 °F73.8 °F (12:55 pm)69.4 °F (4:55 am)
Humidity75.6 %83 % (1:24 am)69 % (10:55 am)
Barometer29.76 in29.83 in (8:55 am)29.70 in (2:55 pm)
Wind Speed13.2 mph16.1 mph (12:55 am)
Weather ElementAverage
Visibility10 mi
Wind DirectionENE (73.6 °)

Weather ElementTotal
Precipitation---
Cooling Degree Days15.4 (Base 65)
Growing Degree Days30.4 (Base 50)
Averaged from 42 records on January 4, 2013
WEATHER CONDITIONS BREAKOUT
WIND DIRECTION BREAKOUT
WEATHER BY HOUR - JANUARY 4, 2013
[ °C ]   °F
Local TimeTemperatureDewpointHumidityBarometerVisibilityWind DirectionWind SpeedGust SpeedPrecipitationEventsConditions
12:46 AM77.0 °F69.8 °F78 %29.80 in10.0 miENE (70°)13.8 mphMostly Cloudy
12:51 AM78.8 °F71.6 °F78 %29.79 in10.0 miEast (80°)11.5 mphMostly Cloudy
12:54 AM78.8 °F71.6 °F78 %29.79 in10.0 miENE (70°)13.8 mphScattered Clouds
12:55 AM77.9 °F71.2 °F80 %29.79 in10.0 miENE (70°)16.1 mphScattered Clouds
1:24 AM77.0 °F71.6 °F83 %29.78 in10.0 miENE (60°)11.5 mphMostly Cloudy
1:55 AM77.7 °F70.7 °F79 %29.78 in10.0 miENE (70°)13.8 mphMostly Cloudy
2:37 AM77.0 °F71.6 °F83 %29.77 in10.0 miEast (80°)13.8 mphMostly Cloudy
2:55 AM77.9 °F71.1 °F79 %29.77 in10.0 miENE (70°)12.7 mphMostly Cloudy
3:00 AM77.0 °F71.6 °F83 %29.76 in10.0 miEast (80°)11.5 mphScattered Clouds
3:55 AM77.2 °F70.0 °F78 %29.77 in10.0 miEast (80°)11.5 mphPartly Cloudy
4:55 AM77.0 °F69.4 °F77 %29.78 in10.0 miEast (80°)13.8 mphPartly Cloudy
5:55 AM76.6 °F70.2 °F80 %29.78 in10.0 miEast (80°)10.4 mphClear
6:55 AM76.5 °F70.3 °F81 %29.80 in10.0 miEast (80°)9.2 mphClear
7:55 AM79.2 °F71.4 °F77 %29.82 in10.0 miEast (80°)10.4 mphClear
8:55 AM81.1 °F71.2 °F72 %29.83 in10.0 miEast (80°)12.7 mphClear
9:55 AM81.9 °F72.1 °F72 %29.82 in10.0 miEast (80°)11.5 mphPartly Cloudy
10:55 AM83.7 °F72.3 °F69 %29.81 in10.0 miEast (80°)12.7 mphPartly Cloudy
11:26 AM84.2 °F73.4 °F70 %29.79 in10.0 miENE (70°)12.7 mphRainLight Rain
11:38 AM84.2 °F73.4 °F70 %29.79 in10.0 miEast (90°)13.8 mphScattered Clouds
11:55 AM84.2 °F73.0 °F69 %29.78 in10.0 miEast (80°)15.0 mph0.00 inPartly Cloudy
12:35 PM84.2 °F73.4 °F70 %29.76 in10.0 miENE (70°)16.1 mphMostly Cloudy
12:48 PM84.2 °F73.4 °F70 %29.75 in10.0 miEast (80°)11.5 mphScattered Clouds
12:55 PM83.7 °F73.8 °F72 %29.75 in10.0 miENE (70°)16.1 mphScattered Clouds
1:00 PM84.2 °F73.4 °F70 %29.75 in10.0 miENE (70°)15.0 mphMostly Cloudy
1:04 PM84.2 °F73.4 °F70 %29.74 in10.0 miENE (70°)16.1 mphScattered Clouds
1:06 PM84.2 °F73.4 °F70 %29.74 in10.0 miENE (70°)15.0 mphMostly Cloudy
1:13 PM84.2 °F73.4 °F70 %29.74 in10.0 miENE (70°)13.8 mphScattered Clouds
1:17 PM84.2 °F73.4 °F70 %29.74 in10.0 miENE (70°)15.0 mphMostly Cloudy
1:21 PM82.4 °F73.4 °F74 %29.74 in10.0 miENE (70°)15.0 mphScattered Clouds
1:22 PM82.4 °F73.4 °F74 %29.74 in10.0 miENE (70°)16.1 mphMostly Cloudy
1:39 PM84.2 °F73.4 °F70 %29.73 in10.0 miENE (70°)15.0 mphScattered Clouds
1:55 PM83.5 °F73.0 °F71 %29.72 in10.0 miEast (80°)16.1 mphScattered Clouds
2:55 PM82.8 °F73.0 °F72 %29.70 in10.0 miENE (70°)12.7 mphPartly Cloudy
3:55 PM82.6 °F73.8 °F75 %29.70 in10.0 miENE (60°)12.7 mphPartly Cloudy
4:55 PM80.2 °F73.8 °F81 %29.71 in10.0 miENE (60°)10.4 mphPartly Cloudy
5:55 PM79.0 °F73.2 °F82 %29.72 in10.0 miENE (70°)13.8 mphScattered Clouds
6:55 PM78.1 °F71.4 °F80 %29.74 in10.0 miENE (70°)13.8 mphPartly Cloudy
7:55 PM78.3 °F71.2 °F79 %29.75 in10.0 miENE (70°)12.7 mphPartly Cloudy
8:55 PM78.3 °F71.2 °F79 %29.76 in10.0 miEast (80°)12.7 mphPartly Cloudy
9:55 PM78.1 °F70.5 °F77 %29.77 in10.0 miEast (80°)13.8 mphClear
10:55 PM77.7 °F71.1 °F80 %29.77 in10.0 miENE (70°)10.4 mphPartly Cloudy
11:55 PM77.7 °F71.8 °F82 %29.77 in10.0 miENE (70°)10.4 mphScattered Clouds
Hourly data recorded from PGUA, located miles away from Merizo, Guam







STORIES FROM OUR PARTNERS